Glendale Luke AFB, AZ

10:17 AM MST on April 26, 2017 (GMT -0700)
Luke Air Force Base

Weather History for KLUF - September, 2013

Change the Weather History Date:

Wednesday, September 18, 2013

  Actual Average Record
Temperature  
Mean Temperature 89 °F -  
Max Temperature 102 °F 100 °F 109 °F (1962)
Min Temperature 76 °F 65 °F 54 °F (1921)
Cooling Degree Days 24    
Growing Degree Days 39 (Base 50)    
Moisture  
Dew Point 41 °F    
Average Humidity 20    
Maximum Humidity 44    
Minimum Humidity 6    
Precipitation  
Precipitation 0.00 in - - ()
Sea Level Pressure  
Sea Level Pressure 29.63 in    
Wind  
Wind Speed 7 mph (SW)    
Max Wind Speed 17 mph    
Max Gust Speed 24 mph    
Visibility 10 miles    
Events      
Averages and records for this station are not official NWS values.
T = Trace of Precipitation, MM = Missing Value Source: NWS Daily Summary

Daily Weather History Graph

Daily Weather History Graph

Search for Another Location

Airport or City:

Trip Planner

Search our weather history database for the weather conditions in past years. The results will help you decide how hot, cold, wet, or windy it might be!

Date:

Astronomy

Sep. 18, 2013 Rise Set
Actual Time 6:15 AM MST 6:31 PM MST
Civil Twilight 5:50 AM MST 6:56 PM MST
Nautical Twilight 5:21 AM MST 7:25 PM MST
Astronomical Twilight 4:51 AM MST 7:54 PM MST
Moon 5:57 PM MST (9/18) 5:22 AM MST (9/18)
Length of Visible Light 13h 05m
Length of Day
12h 16m
Waxing Gibbous, 99% of the Moon is Illuminated
Sep 18
Waxing Gibbous
Sep 19
Full
Sep 26
Last Quarter
Oct 4
New
Oct 11
First Quarter

Hourly Weather History & Observations

Time (MST) Temp. Heat Index Dew Point Humidity Pressure Visibility Wind Dir Wind Speed Gust Speed Precip Events Conditions
12:58 AM 90.3 °F - 48.0 °F 23% 29.60 in 10.0 mi SW 6.9 mph - N/A   Clear
1:58 AM 88.5 °F - 45.9 °F 23% 29.60 in 10.0 mi South 8.1 mph - N/A   Mostly Cloudy
2:58 AM 87.6 °F - 45.0 °F 23% 29.60 in 10.0 mi SSE 5.8 mph - N/A   Partly Cloudy
3:58 AM 85.5 °F - 45.0 °F 24% 29.60 in 10.0 mi SE 4.6 mph - N/A   Clear
4:59 AM 85.1 °F - 45.9 °F 25% 29.62 in 10.0 mi West 4.6 mph - N/A   Clear
5:58 AM 76.8 °F - 53.2 °F 44% 29.64 in 10.0 mi NNW 4.6 mph - N/A   Partly Cloudy
6:58 AM 78.1 °F - 51.1 °F 39% 29.65 in 10.0 mi Calm Calm - N/A   Partly Cloudy
7:58 AM 80.8 °F 80.8 °F 56.3 °F 43% 29.68 in 10.0 mi NNW 3.5 mph - N/A   Partly Cloudy
8:58 AM 88.0 °F - 52.0 °F 29% 29.69 in 10.0 mi North 2.3 mph - N/A   Clear
9:58 AM 91.4 °F - 50.4 °F 25% 29.69 in 10.0 mi WNW 1.2 mph - N/A   Partly Cloudy
10:58 AM 96.1 °F - 42.8 °F 16% 29.68 in 10.0 mi SSW 3.5 mph - N/A   Partly Cloudy
11:58 AM 98.6 °F - 32.2 °F 10% 29.66 in 10.0 mi SSW 8.1 mph - N/A   Clear
12:58 PM 100.6 °F - 22.8 °F 6% 29.65 in 10.0 mi South 6.9 mph - N/A   Clear
1:58 PM 102.6 °F - 24.3 °F 6% 29.61 in 10.0 mi SSW 10.4 mph 21.9 mph N/A   Clear
2:58 PM 102.7 °F - 28.2 °F 7% 29.60 in 10.0 mi SW 15.0 mph 24.2 mph N/A   Clear
3:58 PM 102.7 °F - 27.5 °F 7% 29.57 in 10.0 mi SW 13.8 mph 19.6 mph N/A   Clear
3:59 PM 102.2 °F - 24.8 °F 6% 29.62 in 10.0 mi SSW 12.7 mph 19.6 mph N/A   Clear
4:58 PM 101.7 °F - 36.1 °F 10% 29.57 in 10.0 mi WSW 17.3 mph - N/A   Clear
5:58 PM 98.8 °F - 38.1 °F 12% 29.58 in 10.0 mi WSW 12.7 mph - N/A   Clear
6:56 PM 95.0 °F - 39.2 °F 14% 29.63 in 10.0 mi WSW 9.2 mph - N/A   Clear
7:56 PM 93.2 °F - 37.4 °F 14% 29.65 in 10.0 mi SW 10.4 mph - N/A   Clear
8:56 PM 91.4 °F - 39.2 °F 16% 29.67 in 10.0 mi SW 10.4 mph - N/A   Clear
9:56 PM 89.6 °F - 41.0 °F 18% 29.68 in 10.0 mi South 6.9 mph - N/A   Clear
10:58 PM 83.5 °F - 45.3 °F 26% 29.65 in 10.0 mi Calm Calm - N/A   Clear
11:58 PM 83.8 °F - 42.8 °F 24% 29.65 in 10.0 mi East 3.5 mph - N/A   Clear